SJV621 WAPP-WAYY

Flight info

Callsign SJV621
Flight time 1h 30m
Altitude 37000
Route ATOMY DCT KIKOS DCT TEGEN
Aircraft A320/M-SDE3FGHIRWY/LB1

Departure

Time 2026-04-24 09:58
Airport Pattimura International Airport (WAPP)

Arrival

Time 2026-04-24 11:28
Airport Mozes Kilangin Airport (WAYY)
Time Latitude Longitude Altitude Speed Heading
2026-04-24 09:37 -3.70628 128.08857 0 ft 0 kts 359°
2026-04-24 09:48 -3.70646 128.08857 36 ft 4 kts 355°
2026-04-24 09:48 -3.70673 128.08862 36 ft 4 kts 339°
2026-04-24 09:48 -3.70693 128.08875 34 ft 4 kts 288°
2026-04-24 09:48 -3.70696 128.08886 35 ft 1 kts 270°
2026-04-24 09:51 -3.70696 128.08884 35 ft 1 kts 270°
2026-04-24 09:51 -3.70696 128.08870 36 ft 3 kts 270°
2026-04-24 09:51 -3.70695 128.08843 36 ft 5 kts 270°
2026-04-24 09:52 -3.70696 128.08803 36 ft 7 kts 265°
2026-04-24 09:52 -3.70727 128.08768 36 ft 8 kts 195°
2026-04-24 09:52 -3.70788 128.08767 36 ft 10 kts 180°
2026-04-24 09:52 -3.70862 128.08767 35 ft 12 kts 180°
2026-04-24 09:53 -3.70949 128.08767 33 ft 14 kts 180°
2026-04-24 09:53 -3.71038 128.08809 34 ft 16 kts 137°
2026-04-24 09:53 -3.71091 128.08867 33 ft 11 kts 119°
2026-04-24 09:53 -3.71063 128.08931 34 ft 11 kts 45°
2026-04-24 09:54 -3.71005 128.08989 34 ft 12 kts 45°
2026-04-24 09:54 -3.70941 128.09053 35 ft 14 kts 45°
2026-04-24 09:54 -3.70869 128.09125 35 ft 15 kts 45°
2026-04-24 09:54 -3.70790 128.09203 36 ft 17 kts 44°
2026-04-24 09:55 -3.70705 128.09287 36 ft 18 kts 45°
2026-04-24 09:55 -3.70611 128.09381 36 ft 20 kts 44°
2026-04-24 09:55 -3.70507 128.09485 36 ft 22 kts 45°
2026-04-24 09:55 -3.70403 128.09588 34 ft 18 kts 45°
2026-04-24 09:56 -3.70317 128.09675 34 ft 12 kts 39°
2026-04-24 09:56 -3.70261 128.09699 34 ft 7 kts 18°
2026-04-24 09:56 -3.70223 128.09732 34 ft 7 kts 79°
2026-04-24 09:56 -3.70238 128.09747 34 ft 3 kts 168°
2026-04-24 09:57 -3.70254 128.09739 34 ft 3 kts 225°
2026-04-24 09:57 -3.70259 128.09733 34 ft 1 kts 226°
2026-04-24 09:57 -3.70272 128.09719 34 ft 6 kts 226°
2026-04-24 09:57 -3.70455 128.09538 35 ft 72 kts 224°
2026-04-24 09:58 -3.70954 128.09041 35 ft 127 kts 225°
2026-04-24 09:58 -3.71682 128.08315 140 ft 160 kts 225°
2026-04-24 09:58 -3.72443 128.07548 823 ft 153 kts 225°
2026-04-24 09:58 -3.73199 128.06784 1407 ft 155 kts 225°
2026-04-24 09:59 -3.73963 128.06015 1950 ft 156 kts 225°
2026-04-24 09:59 -3.74739 128.05236 2371 ft 159 kts 225°
2026-04-24 09:59 -3.75531 128.04453 2820 ft 161 kts 224°
2026-04-24 09:59 -3.76338 128.03678 3292 ft 160 kts 219°
2026-04-24 10:00 -3.77367 128.03272 3715 ft 163 kts 182°
2026-04-24 10:00 -3.78464 128.03540 4150 ft 165 kts 149°
2026-04-24 10:00 -3.79350 128.04319 4389 ft 181 kts 136°
2026-04-24 10:00 -3.80279 128.05250 4605 ft 196 kts 135°
2026-04-24 10:01 -3.81293 128.06269 4724 ft 218 kts 135°
2026-04-24 10:01 -3.82421 128.07407 4991 ft 236 kts 134°
2026-04-24 10:01 -3.83590 128.08592 5663 ft 240 kts 134°
2026-04-24 10:01 -3.84765 128.09789 6393 ft 243 kts 134°
2026-04-24 10:02 -3.85967 128.11015 7027 ft 250 kts 134°
2026-04-24 10:02 -3.87199 128.12265 7713 ft 253 kts 134°
2026-04-24 10:02 -3.88448 128.13514 8487 ft 254 kts 135°
2026-04-24 10:02 -3.89708 128.14761 9186 ft 256 kts 136°
2026-04-24 10:03 -3.90988 128.16029 9799 ft 264 kts 135°
2026-04-24 10:03 -3.91868 128.16916 9930 ft 279 kts 135°
2026-04-24 10:03 -3.93256 128.18385 10140 ft 301 kts 127°
2026-04-24 10:03 -3.94210 128.20325 10288 ft 324 kts 103°
2026-04-24 10:04 -3.94230 128.22629 10426 ft 344 kts 75°
2026-04-24 10:04 -3.93131 128.24778 10771 ft 354 kts 51°
2026-04-24 10:04 -3.91516 128.26676 11316 ft 359 kts 49°
2026-04-24 10:04 -3.89850 128.28550 11909 ft 362 kts 48°
2026-04-24 10:05 -3.87599 128.31036 12652 ft 366 kts 48°
2026-04-24 10:05 -3.86437 128.32318 13028 ft 368 kts 48°
2026-04-24 10:05 -3.84735 128.34207 13590 ft 371 kts 48°
2026-04-24 10:05 -3.83009 128.36136 14127 ft 374 kts 48°
2026-04-24 10:06 -3.81270 128.38089 14708 ft 375 kts 49°
2026-04-24 10:06 -3.77782 128.42023 15776 ft 380 kts 49°
2026-04-24 10:06 -3.76018 128.44011 16275 ft 383 kts 49°
2026-04-24 10:07 -3.74242 128.46008 16767 ft 385 kts 48°
2026-04-24 10:07 -3.72455 128.48021 17262 ft 388 kts 49°
2026-04-24 10:07 -3.70661 128.50044 17753 ft 390 kts 48°
2026-04-24 10:07 -3.68852 128.52085 18226 ft 393 kts 48°
2026-04-24 10:08 -3.67032 128.54136 18678 ft 395 kts 48°
2026-04-24 10:08 -3.65198 128.56197 19157 ft 398 kts 48°
2026-04-24 10:08 -3.63350 128.58272 19598 ft 400 kts 48°
2026-04-24 10:08 -3.61493 128.60357 20063 ft 402 kts 48°
2026-04-24 10:09 -3.59653 128.62424 20514 ft 404 kts 48°
2026-04-24 10:09 -3.57754 128.64557 20955 ft 407 kts 48°
2026-04-24 10:09 -3.55959 128.66748 21373 ft 409 kts 56°
2026-04-24 10:09 -3.54555 128.69227 21766 ft 411 kts 66°
2026-04-24 10:10 -3.53531 128.71862 22153 ft 413 kts 69°
2026-04-24 10:10 -3.52516 128.74557 22538 ft 415 kts 69°
2026-04-24 10:10 -3.51491 128.77261 22925 ft 416 kts 69°
2026-04-24 10:10 -3.50458 128.79977 23299 ft 418 kts 69°
2026-04-24 10:11 -3.49420 128.82704 23663 ft 420 kts 69°
2026-04-24 10:11 -3.48377 128.85444 24014 ft 422 kts 69°
2026-04-24 10:11 -3.47329 128.88193 24365 ft 424 kts 69°
2026-04-24 10:11 -3.46279 128.90955 24695 ft 426 kts 69°
2026-04-24 10:12 -3.45225 128.93735 25010 ft 428 kts 69°
2026-04-24 10:12 -3.44168 128.96521 25341 ft 429 kts 69°
2026-04-24 10:12 -3.43106 128.99323 25652 ft 431 kts 69°
2026-04-24 10:12 -3.42041 129.02134 25946 ft 433 kts 69°
2026-04-24 10:13 -3.40967 129.04961 26233 ft 435 kts 69°
2026-04-24 10:13 -3.39884 129.07801 26523 ft 437 kts 69°
2026-04-24 10:13 -3.38797 129.10643 26811 ft 438 kts 69°
2026-04-24 10:13 -3.37707 129.13493 27084 ft 440 kts 69°
2026-04-24 10:14 -3.36627 129.16325 27348 ft 442 kts 70°
2026-04-24 10:14 -3.35528 129.19212 27580 ft 445 kts 70°
2026-04-24 10:14 -3.34408 129.22151 27847 ft 447 kts 70°
2026-04-24 10:14 -3.33298 129.25064 28096 ft 449 kts 70°
2026-04-24 10:15 -3.32198 129.27954 28296 ft 451 kts 70°
2026-04-24 10:15 -3.31078 129.30898 28486 ft 453 kts 70°
2026-04-24 10:15 -3.29953 129.33849 28703 ft 455 kts 70°
2026-04-24 10:15 -3.28825 129.36804 29013 ft 453 kts 69°
2026-04-24 10:16 -3.27702 129.39750 29369 ft 452 kts 70°
2026-04-24 10:16 -3.26584 129.42681 29718 ft 451 kts 70°
2026-04-24 10:16 -3.25468 129.45607 30138 ft 448 kts 70°
2026-04-24 10:16 -3.24353 129.48524 30440 ft 449 kts 69°
2026-04-24 10:17 -3.23238 129.51444 30634 ft 451 kts 70°
2026-04-24 10:17 -3.22118 129.54378 30809 ft 452 kts 69°
2026-04-24 10:17 -3.20994 129.57320 30928 ft 454 kts 70°
2026-04-24 10:17 -3.19863 129.60280 31170 ft 453 kts 70°
2026-04-24 10:18 -3.18744 129.63218 31537 ft 451 kts 70°
2026-04-24 10:18 -3.17643 129.66113 31835 ft 450 kts 70°
2026-04-24 10:18 -3.16528 129.69035 32047 ft 450 kts 70°
2026-04-24 10:18 -3.15410 129.71965 32332 ft 449 kts 70°
2026-04-24 10:19 -3.14471 129.74925 32746 ft 445 kts 79°
2026-04-24 10:19 -3.14077 129.77974 33091 ft 442 kts 89°
2026-04-24 10:19 -3.14257 129.81039 33400 ft 440 kts 99°
2026-04-24 10:19 -3.14980 129.84002 33692 ft 439 kts 108°
2026-04-24 10:20 -3.15945 129.86897 33989 ft 438 kts 108°
2026-04-24 10:20 -3.16902 129.89788 34246 ft 438 kts 108°
2026-04-24 10:20 -3.17855 129.92684 34487 ft 438 kts 108°
2026-04-24 10:20 -3.18803 129.95580 34707 ft 438 kts 108°
2026-04-24 10:21 -3.19749 129.98472 35024 ft 436 kts 108°
2026-04-24 10:21 -3.20692 130.01350 35293 ft 435 kts 108°
2026-04-24 10:21 -3.21635 130.04232 35540 ft 435 kts 108°
2026-04-24 10:21 -3.22572 130.07101 35799 ft 434 kts 108°
2026-04-24 10:22 -3.23512 130.09967 36016 ft 433 kts 108°
2026-04-24 10:22 -3.24452 130.12828 36246 ft 433 kts 108°
2026-04-24 10:22 -3.25393 130.15688 36463 ft 432 kts 108°
2026-04-24 10:22 -3.26326 130.18535 36683 ft 431 kts 108°
2026-04-24 10:23 -3.27252 130.21356 36829 ft 431 kts 108°
2026-04-24 10:23 -3.29139 130.27098 36865 ft 438 kts 108°
2026-04-24 10:24 -3.31053 130.32937 36864 ft 443 kts 108°
2026-04-24 10:24 -3.32979 130.38811 36865 ft 444 kts 108°
2026-04-24 10:25 -3.34896 130.44681 36864 ft 443 kts 108°
2026-04-24 10:25 -3.36822 130.50549 36867 ft 444 kts 108°
2026-04-24 10:26 -3.38753 130.56419 36874 ft 444 kts 108°
2026-04-24 10:26 -3.40669 130.62263 36885 ft 444 kts 108°
2026-04-24 10:27 -3.42591 130.68121 36889 ft 443 kts 108°
2026-04-24 10:27 -3.44506 130.73975 36889 ft 442 kts 108°
2026-04-24 10:28 -3.46421 130.79819 36889 ft 442 kts 108°
2026-04-24 10:28 -3.48329 130.85664 36885 ft 441 kts 108°
2026-04-24 10:29 -3.50218 130.91468 36888 ft 441 kts 108°
2026-04-24 10:29 -3.52131 130.97303 36883 ft 441 kts 108°
2026-04-24 10:30 -3.54046 131.03126 36884 ft 441 kts 108°
2026-04-24 10:30 -3.55958 131.08959 36880 ft 441 kts 108°
2026-04-24 10:31 -3.57864 131.14792 36881 ft 441 kts 108°
2026-04-24 10:31 -3.59773 131.20619 36881 ft 440 kts 108°
2026-04-24 10:32 -3.61675 131.26444 36883 ft 440 kts 108°
2026-04-24 10:32 -3.63581 131.32273 36882 ft 440 kts 108°
2026-04-24 10:33 -3.65472 131.38071 36882 ft 440 kts 108°
2026-04-24 10:33 -3.67376 131.43904 36880 ft 440 kts 108°
2026-04-24 10:34 -3.69279 131.49732 36882 ft 440 kts 108°
2026-04-24 10:34 -3.71186 131.55565 36886 ft 441 kts 108°
2026-04-24 10:35 -3.73092 131.61411 36889 ft 442 kts 108°
2026-04-24 10:35 -3.75003 131.67257 36897 ft 442 kts 108°
2026-04-24 10:36 -3.76909 131.73119 36900 ft 443 kts 108°
2026-04-24 10:36 -3.78818 131.78977 36906 ft 443 kts 108°
2026-04-24 10:37 -3.80723 131.84805 36907 ft 443 kts 108°
2026-04-24 10:37 -3.82640 131.90676 36906 ft 443 kts 108°
2026-04-24 10:38 -3.84555 131.96541 36908 ft 443 kts 108°
2026-04-24 10:38 -3.86470 132.02406 36911 ft 443 kts 108°
2026-04-24 10:39 -3.88372 132.08269 36918 ft 442 kts 109°
2026-04-24 10:39 -3.90272 132.14120 36916 ft 441 kts 109°
2026-04-24 10:40 -3.92170 132.19949 36914 ft 440 kts 109°
2026-04-24 10:40 -3.94060 132.25739 36925 ft 440 kts 109°
2026-04-24 10:41 -3.95951 132.31556 36925 ft 440 kts 109°
2026-04-24 10:41 -3.97839 132.37375 36905 ft 439 kts 109°
2026-04-24 10:42 -3.99731 132.43193 36909 ft 439 kts 109°
2026-04-24 10:42 -4.01622 132.49007 36914 ft 439 kts 109°
2026-04-24 10:43 -4.03512 132.54817 36907 ft 439 kts 109°
2026-04-24 10:43 -4.05399 132.60623 36908 ft 439 kts 109°
2026-04-24 10:44 -4.07283 132.66437 36907 ft 439 kts 108°
2026-04-24 10:44 -4.08667 132.72392 36889 ft 441 kts 97°
2026-04-24 10:45 -4.09307 132.78521 36888 ft 443 kts 97°
2026-04-24 10:45 -4.09946 132.84660 36891 ft 444 kts 97°
2026-04-24 10:46 -4.10592 132.90821 36895 ft 444 kts 97°
2026-04-24 10:46 -4.11229 132.96982 36896 ft 445 kts 97°
2026-04-24 10:47 -4.11870 133.03098 36906 ft 445 kts 97°
2026-04-24 10:47 -4.12520 133.09264 36907 ft 445 kts 97°
2026-04-24 10:48 -4.13164 133.15408 36908 ft 445 kts 97°
2026-04-24 10:48 -4.13810 133.21586 36901 ft 445 kts 97°
2026-04-24 10:49 -4.14444 133.27749 36934 ft 444 kts 96°
2026-04-24 10:49 -4.15080 133.33892 36966 ft 443 kts 96°
2026-04-24 10:50 -4.15717 133.40020 36971 ft 442 kts 96°
2026-04-24 10:50 -4.16351 133.46138 36972 ft 441 kts 96°
2026-04-24 10:51 -4.16990 133.52246 36970 ft 440 kts 96°
2026-04-24 10:51 -4.17620 133.58347 36968 ft 440 kts 96°
2026-04-24 10:52 -4.18249 133.64444 36968 ft 440 kts 96°
2026-04-24 10:52 -4.18886 133.70537 36967 ft 440 kts 96°
2026-04-24 10:53 -4.19523 133.76635 36966 ft 440 kts 96°
2026-04-24 10:53 -4.20148 133.82720 36964 ft 439 kts 96°
2026-04-24 10:54 -4.20667 133.87781 36964 ft 439 kts 96°
2026-04-24 10:54 -4.21298 133.93873 36964 ft 439 kts 96°
2026-04-24 10:55 -4.21929 133.99971 36964 ft 440 kts 96°
2026-04-24 10:55 -4.22558 134.06066 36965 ft 440 kts 96°
2026-04-24 10:56 -4.23188 134.12156 36964 ft 440 kts 96°
2026-04-24 10:56 -4.23817 134.18253 36964 ft 440 kts 96°
2026-04-24 10:57 -4.24448 134.24347 36965 ft 440 kts 96°
2026-04-24 10:57 -4.25074 134.30445 36966 ft 440 kts 96°
2026-04-24 10:58 -4.25697 134.36542 36968 ft 440 kts 96°
2026-04-24 10:58 -4.26322 134.42607 36968 ft 440 kts 96°
2026-04-24 10:59 -4.26952 134.48706 36971 ft 440 kts 97°
2026-04-24 10:59 -4.27575 134.54795 36974 ft 439 kts 97°
2026-04-24 11:00 -4.28193 134.60869 36972 ft 438 kts 97°
2026-04-24 11:00 -4.28812 134.66934 36970 ft 437 kts 97°
2026-04-24 11:01 -4.29438 134.72988 36967 ft 436 kts 97°
2026-04-24 11:01 -4.30065 134.79041 36965 ft 436 kts 97°
2026-04-24 11:02 -4.30674 134.85091 36964 ft 436 kts 97°
2026-04-24 11:02 -4.31289 134.91137 36963 ft 436 kts 97°
2026-04-24 11:03 -4.31906 134.97154 36964 ft 437 kts 97°
2026-04-24 11:03 -4.32525 135.03208 36964 ft 437 kts 97°
2026-04-24 11:04 -4.33137 135.09264 36965 ft 437 kts 97°
2026-04-24 11:04 -4.33476 135.12607 36966 ft 437 kts 97°
2026-04-24 11:05 -4.33839 135.16161 36968 ft 438 kts 97°
2026-04-24 11:05 -4.34731 135.22191 36973 ft 436 kts 106°
2026-04-24 11:06 -4.36300 135.28029 36977 ft 437 kts 106°
2026-04-24 11:06 -4.37885 135.33906 36716 ft 437 kts 106°
2026-04-24 11:06 -4.38684 135.36882 36462 ft 437 kts 106°
2026-04-24 11:07 -4.40242 135.42727 35967 ft 437 kts 106°
2026-04-24 11:07 -4.41025 135.45672 35717 ft 437 kts 106°
2026-04-24 11:07 -4.41814 135.48613 35466 ft 438 kts 106°
2026-04-24 11:08 -4.42607 135.51560 35217 ft 438 kts 106°
2026-04-24 11:08 -4.43402 135.54516 34967 ft 439 kts 106°
2026-04-24 11:08 -4.44196 135.57471 34715 ft 440 kts 106°
2026-04-24 11:08 -4.44993 135.60434 34470 ft 441 kts 106°
2026-04-24 11:09 -4.45790 135.63402 34221 ft 441 kts 105°
2026-04-24 11:09 -4.46587 135.66381 33968 ft 442 kts 105°
2026-04-24 11:09 -4.47379 135.69364 33717 ft 443 kts 105°
2026-04-24 11:09 -4.48165 135.72346 33277 ft 444 kts 105°
2026-04-24 11:10 -4.48947 135.75359 32350 ft 450 kts 105°
2026-04-24 11:10 -4.49730 135.78414 31408 ft 455 kts 105°
2026-04-24 11:10 -4.50515 135.81478 30821 ft 452 kts 105°
2026-04-24 11:10 -4.51331 135.84519 30193 ft 454 kts 106°
2026-04-24 11:11 -4.52192 135.87572 29558 ft 456 kts 106°
2026-04-24 11:11 -4.53070 135.90619 28940 ft 454 kts 106°
2026-04-24 11:11 -4.53951 135.93664 28314 ft 459 kts 106°
2026-04-24 11:11 -4.54835 135.96744 27684 ft 459 kts 106°
2026-04-24 11:12 -4.55707 135.99820 27059 ft 457 kts 106°
2026-04-24 11:12 -4.56565 136.02874 26411 ft 453 kts 106°
2026-04-24 11:12 -4.57415 136.05916 25822 ft 460 kts 105°
2026-04-24 11:12 -4.58289 136.09050 25174 ft 469 kts 105°
2026-04-24 11:13 -4.59168 136.12201 24547 ft 469 kts 105°
2026-04-24 11:13 -4.60036 136.15305 23926 ft 466 kts 105°
2026-04-24 11:13 -4.60908 136.18424 23302 ft 463 kts 105°
2026-04-24 11:13 -4.61771 136.21516 22683 ft 459 kts 105°
2026-04-24 11:14 -4.62626 136.24593 22050 ft 456 kts 105°
2026-04-24 11:14 -4.63475 136.27645 21423 ft 453 kts 105°
2026-04-24 11:14 -4.64317 136.30666 20794 ft 449 kts 105°
2026-04-24 11:14 -4.65163 136.33704 20175 ft 454 kts 105°
2026-04-24 11:15 -4.66014 136.36749 19545 ft 452 kts 105°
2026-04-24 11:15 -4.66828 136.39657 18942 ft 448 kts 105°
2026-04-24 11:15 -4.67677 136.42691 18308 ft 444 kts 105°
2026-04-24 11:15 -4.68519 136.45716 17670 ft 440 kts 105°
2026-04-24 11:16 -4.69338 136.48657 17044 ft 436 kts 105°
2026-04-24 11:16 -4.70152 136.51577 16417 ft 433 kts 105°
2026-04-24 11:16 -4.70958 136.54469 15793 ft 429 kts 104°
2026-04-24 11:16 -4.71758 136.57338 15166 ft 426 kts 104°
2026-04-24 11:17 -4.72551 136.60189 14537 ft 423 kts 104°
2026-04-24 11:17 -4.73335 136.63017 13911 ft 419 kts 104°
2026-04-24 11:17 -4.74116 136.65832 13284 ft 416 kts 105°
2026-04-24 11:17 -4.74892 136.68613 12656 ft 413 kts 105°
2026-04-24 11:18 -4.75664 136.71372 12027 ft 410 kts 105°
2026-04-24 11:18 -4.76417 136.74067 11415 ft 407 kts 105°
2026-04-24 11:18 -4.77174 136.76783 10792 ft 403 kts 105°
2026-04-24 11:18 -4.77922 136.79467 10163 ft 397 kts 105°
2026-04-24 11:19 -4.78658 136.82099 9783 ft 384 kts 105°
2026-04-24 11:19 -4.79361 136.84625 9537 ft 369 kts 105°
2026-04-24 11:19 -4.80026 136.87027 9286 ft 356 kts 105°
2026-04-24 11:19 -4.80684 136.89407 9040 ft 344 kts 105°
2026-04-24 11:20 -4.81312 136.91672 8977 ft 328 kts 105°
2026-04-24 11:20 -4.81902 136.93787 8974 ft 308 kts 105°
2026-04-24 11:20 -4.82447 136.95796 8977 ft 294 kts 100°
2026-04-24 11:20 -4.82503 136.97818 8980 ft 290 kts 79°
2026-04-24 11:21 -4.81847 136.99718 8889 ft 290 kts 60°
2026-04-24 11:21 -4.80572 137.01278 8225 ft 291 kts 38°
2026-04-24 11:21 -4.78912 137.02405 7674 ft 286 kts 33°
2026-04-24 11:21 -4.77263 137.03498 7155 ft 282 kts 33°
2026-04-24 11:22 -4.75637 137.04590 6648 ft 280 kts 33°
2026-04-24 11:22 -4.74029 137.05677 6134 ft 278 kts 34°
2026-04-24 11:22 -4.72433 137.06758 5629 ft 275 kts 34°
2026-04-24 11:22 -4.70859 137.07822 5135 ft 270 kts 34°
2026-04-24 11:23 -4.69306 137.08864 4634 ft 266 kts 31°
2026-04-24 11:23 -4.67584 137.09415 4159 ft 260 kts 359°
2026-04-24 11:23 -4.65889 137.08948 3753 ft 252 kts 326°
2026-04-24 11:23 -4.64736 137.07712 3469 ft 239 kts 299°
2026-04-24 11:24 -4.63929 137.06303 3188 ft 228 kts 301°
2026-04-24 11:24 -4.63117 137.04977 2913 ft 219 kts 302°
2026-04-24 11:24 -4.62325 137.03722 2749 ft 208 kts 302°
2026-04-24 11:24 -4.61556 137.02510 2608 ft 204 kts 302°
2026-04-24 11:25 -4.60836 137.01368 2428 ft 189 kts 302°
2026-04-24 11:25 -4.60172 137.00310 2278 ft 170 kts 301°
2026-04-24 11:25 -4.59574 136.99356 2145 ft 156 kts 301°
2026-04-24 11:25 -4.59012 136.98455 2010 ft 150 kts 301°
2026-04-24 11:26 -4.58458 136.97570 1850 ft 149 kts 302°
2026-04-24 11:26 -4.57913 136.96698 1669 ft 147 kts 302°
2026-04-24 11:26 -4.57377 136.95829 1467 ft 146 kts 301°
2026-04-24 11:26 -4.56856 136.94957 1271 ft 146 kts 301°
2026-04-24 11:27 -4.56339 136.94093 1118 ft 145 kts 302°
2026-04-24 11:27 -4.55816 136.93233 923 ft 144 kts 301°
2026-04-24 11:27 -4.55296 136.92377 726 ft 143 kts 300°
2026-04-24 11:27 -4.54767 136.91532 577 ft 143 kts 303°
2026-04-24 11:28 -4.54216 136.90699 366 ft 143 kts 302°
2026-04-24 11:28 -4.53678 136.89867 203 ft 143 kts 302°
2026-04-24 11:28 -4.53170 136.89033 109 ft 129 kts 302°
2026-04-24 11:28 -4.52823 136.88504 110 ft 47 kts 302°
2026-04-24 11:29 -4.52749 136.88385 111 ft 15 kts 302°
2026-04-24 11:29 -4.52690 136.88287 110 ft 18 kts 301°
2026-04-24 11:29 -4.52652 136.88226 109 ft 6 kts 301°
2026-04-24 11:29 -4.52637 136.88181 110 ft 8 kts 264°
2026-04-24 11:30 -4.52671 136.88147 110 ft 4 kts 213°
2026-04-24 11:30 -4.52699 136.88129 110 ft 5 kts 211°
2026-04-24 11:30 -4.52723 136.88115 110 ft 5 kts 211°
2026-04-24 11:30 -4.52761 136.88099 110 ft 7 kts 182°
2026-04-24 11:31 -4.52791 136.88118 109 ft 4 kts 132°
2026-04-24 11:31 -4.52812 136.88149 110 ft 7 kts 122°
2026-04-24 11:31 -4.52837 136.88183 110 ft 5 kts 139°
2026-04-24 11:31 -4.52859 136.88187 110 ft 3 kts 185°
2026-04-24 11:32 -4.52876 136.88178 110 ft 3 kts 210°
2026-04-24 11:32 -4.52887 136.88172 110 ft 2 kts 210°
2026-04-24 11:32 -4.52894 136.88168 110 ft 1 kts 211°
2026-04-24 11:32 -4.52900 136.88164 110 ft 1 kts 211°
2026-04-24 11:33 -4.52903 136.88162 110 ft 1 kts 212°
2026-04-24 11:33 -4.52906 136.88161 110 ft 0 kts 212°